User: anonymous   Login
Location: Muenchen
(48.1800°N, 11.5800°E)
Time: 17:33:53
(UTC+02:00)
Language:

ISS - Orbit

View from above orbital plane
View from above orbital plane
View from above satellite
View from above satellite

Ground track
Ground track

The orbit data is extracted from the following two-line orbital elements,

1 25544U 98067A   15117.58553912  .00021599  00000-0  30834-3 0  9990
2 25544 051.6472 336.7948 0005029 273.0098 124.3325 15.56195207940163
Epoch (UTC): 27 April 2015 14:03:10
Eccentricity: 0.0005029
inclination: 51.6472°
perigee height: 395 km
apogee height: 402 km
right ascension of ascending node: 336.7948°
argument of perigee: 273.0098°
revolutions per day: 15.56195207
mean anomaly at epoch: 124.3325°
orbit number at epoch: 94016

The dashed part of the orbit path shows where the satellite is in the earth's shadow,  

DLR